Content
SEND FEEDBACK

Daily
Averages
Monthly
Summary
France

NIMES, FRANCE


Home > Europe > France
Elevation: 200 feet     Latitude: 43 51N     Longitude: 004 24E

WEATHER
 
SELECT A DAY
Number of Records: 195,619;   Date Range: 7/1/96 - 9/30/14
 
SHARE

PRINT THIS DATA

[ ← Previous Day ]
WEATHER ALMANAC - JANUARY 31, 2013
[ Next Day → ]
[ °C ]   °F
Weather ElementAverageHighLow
Temperature54.9 °F62.6 °F (4:30 pm)44.6 °F (8:00 am)
Dewpoint43.1 °F46.4 °F (12:30 am)37.4 °F (10:00 pm)
Humidity65.2 %87 % (8:00 am)51 % (10:00 pm)
Barometer30.29 in30.33 in (7:00 am)30.24 in (10:00 pm)
Wind Speed5.4 mph11.5 mph (4:30 am)
Weather ElementAverage
Visibility6.1 mi
Wind DirectionSSW (207.2 °)

Weather ElementTotal
Precipitation---
Heating Degree Days11.4 (Base 65)
Growing Degree Days3.6 (Base 50)
Averaged from 47 records on January 31, 2013
WEATHER CONDITIONS BREAKOUT
WIND DIRECTION BREAKOUT
WEATHER BY HOUR - JANUARY 31, 2013
[ °C ]   °F
Local TimeTemperatureDewpointHumidityBarometerVisibilityWind DirectionWind SpeedGust SpeedPrecipitationEventsConditions
12:30 AM57.2 °F46.4 °F67 %30.27 in6.2 miNW (320°)6.9 mph
1:00 AM57.2 °F46.4 °F67 %30.27 in6.2 miNW (320°)8.1 mph
1:30 AM57.2 °F44.6 °F63 %30.27 in6.2 miWNW (300°)9.2 mph
2:00 AM57.2 °F44.6 °F63 %30.27 in6.2 miWest (270°)5.8 mph
2:30 AM57.2 °F44.6 °F63 %30.30 in6.2 miNNW (340°)5.8 mph
3:00 AM55.4 °F44.6 °F67 %30.30 in6.2 miNorth (10°)8.1 mph
3:30 AM53.6 °F44.6 °F72 %30.30 in6.2 miNorth (360°)10.4 mph
4:00 AM51.8 °F44.6 °F76 %30.30 in6.2 miNorth (360°)6.9 mph
4:30 AM51.8 °F44.6 °F76 %30.30 in6.2 miNorth (360°)11.5 mph
5:00 AM51.8 °F42.8 °F71 %30.30 in6.2 miNorth (350°)10.4 mph
5:30 AM50.0 °F42.8 °F76 %30.30 in6.2 miNorth (360°)10.4 mph
6:00 AM50.0 °F42.8 °F76 %30.30 in6.2 miNorth (360°)10.4 mph
6:30 AM48.2 °F41.0 °F76 %30.30 in6.2 miNorth (350°)8.1 mph
7:00 AM48.2 °F41.0 °F76 %30.33 in6.2 miNW (320°)5.8 mph
7:30 AM46.4 °F41.0 °F81 %30.33 in6.2 miNW (320°)6.9 mph
8:00 AM44.6 °F41.0 °F87 %30.33 in6.2 miNW (310°)4.6 mph
8:30 AM46.4 °F42.8 °F87 %30.33 in6.2 miNNW (330°)4.6 mph
9:00 AM48.2 °F41.0 °F76 %30.33 in6.2 miNNW (340°)5.8 mph
9:30 AM51.8 °F41.0 °F67 %30.33 in6.2 miNNW (340°)4.6 mph
10:00 AM55.4 °F42.8 °F63 %30.33 in6.2 miNorth (350°)6.9 mph
10:30 AM53.6 °F42.8 °F67 %30.33 in6.2 miNorth (360°)4.6 mph
11:00 AM53.6 °F42.8 °F67 %30.33 in6.2 miVariable2.3 mph
11:30 AM55.4 °F42.8 °F63 %30.33 in6.2 miNE (50°)5.8 mph
12:00 PM57.2 °F41.0 °F55 %30.33 in6.2 miENE (60°)5.8 mph
12:30 PM59.0 °F42.8 °F55 %30.33 in6.2 miVariable2.3 mph
1:00 PM57.2 °F41.0 °F55 %30.33 in6.2 miCalm
1:30 PM59.0 °F42.8 °F55 %30.30 in6.2 miCalm
2:00 PM59.0 °F42.8 °F55 %30.30 in6.2 miVariable2.3 mph
2:30 PM60.8 °F44.6 °F55 %30.30 in6.2 miCalm
3:00 PM59.0 °F42.8 °F55 %30.27 in6.2 miVariable2.3 mph
3:30 PM60.8 °F44.6 °F55 %30.27 in6.2 miCalm
4:00 PM59.0 °F46.4 °F63 %30.27 in6.2 miSouth (180°)1.2 mph
4:30 PM62.6 °F44.6 °F52 %30.27 in6.2 miVariable2.3 mph
5:00 PM62.6 °F46.4 °F55 %30.27 in6.2 miVariable3.5 mphOvercast
5:30 PM62.6 °F46.4 °F55 %30.27 in6.2 miCalm
6:00 PM59.0 °F46.4 °F63 %30.27 in6.2 miVariable2.3 mph
6:30 PM55.4 °F46.4 °F72 %30.27 in1.5 miCalmMist
7:00 PM55.4 °F46.4 °F72 %30.27 in6.2 miWest (260°)4.6 mph
7:30 PM53.6 °F46.4 °F77 %30.27 in6.2 miSW (230°)4.6 mph
8:00 PM55.4 °F44.6 °F67 %30.27 in6.2 miNNW (330°)9.2 mph
8:30 PM53.6 °F42.8 °F67 %30.27 in6.2 miWNW (300°)4.6 mph
9:00 PM53.6 °F41.0 °F62 %30.27 in6.2 miWNW (300°)4.6 mph
9:30 PM55.4 °F39.2 °F54 %30.27 in6.2 miNW (320°)9.2 mph
10:00 PM55.4 °F37.4 °F51 %30.24 in6.2 miWNW (290°)8.1 mph
10:30 PM53.6 °F37.4 °F54 %30.24 in6.2 miNNE (20°)3.5 mph
11:00 PM53.6 °F37.4 °F54 %30.24 in6.2 miNorth (350°)8.1 mph
11:30 PM53.6 °F39.2 °F58 %30.24 in6.2 miNW (320°)9.2 mph
Hourly data recorded from LFTW, located miles away from Nimes, France







STORIES FROM OUR PARTNERS